Regional Weather Roundup
Issued by NWS Sioux Falls, SD

Home | Current Version | Previous Version | Graphics & Text | Print | Product List | Glossary Off
Versions: 1 2 3 4 5 6 7 8 9 10 11 12 13 14 15 16 17 18 19 20 21 22 23 24 25 26 27 28 29 30 31 32 33 34 35 36 37 38 39 40 41 42 43 44 45 46 47 48 49 50

000
ASUS43 KFSD 282202
RWRFSD

WEATHER ROUNDUP FOR SE SOUTH DAKOTA/SW MINNESOTA/NW IOWA
NATIONAL WEATHER SERVICE SIOUX FALLS SD
500 PM CDT FRI APR 28 2017

NOTE: "FAIR" INDICATES FEW OR NO CLOUDS BELOW 12,000 FEET WITH NO
SIGNIFICANT WEATHER AND OR OBSTRUCTIONS TO VISIBILITY.


SDZ038>040-050-052>070-282300-
SOUTHEAST SOUTH DAKOTA

CITY           SKY/WX    TMP DP  RH WIND       PRES   REMARKS
BROOKINGS      CLOUDY    49  25  39 NE12G20   29.97R
CHAMBERLAIN    PTSUNNY   54  29  38 NE13G21   29.98R
HURON          MOSUNNY   55  21  26 NE18G24   29.99R
MADISON        FAIR      48  27  43 NE18G26   29.97R
MITCHELL       CLOUDY    53  28  38 NE14G25   29.98R
SIOUX FALLS    CLOUDY    48  33  56 NE14      29.97R
WINNER         FAIR      52  27  38 NE13G22   29.97R
YANKTON        PTSUNNY   46  28  49 NE16      29.95S
$$

MNZ071-072-080-081-089-090-097-098-282300-
SOUTHWEST MINNESOTA

CITY           SKY/WX    TMP DP  RH WIND       PRES   REMARKS
FAIRMONT       CLOUDY    46  33  60 N14       29.93S
JACKSON        CLOUDY    45  32  61 NE16      29.94R
MARSHALL       CLOUDY    50  26  39 NE16      29.96R
MONTEVIDEO     PTSUNNY   52  23  32 NE17      29.97S
PIPESTONE      CLOUDY    48  25  40 E9G21     29.96R
REDWOOD FALLS  PTSUNNY   51  28  41 N14G21    29.95S
TRACY          CLOUDY    50  33  52 NE16      29.96R
WINDOM         PTSUNNY   46  32  57 N9        29.95R
WORTHINGTON    CLOUDY    46  30  53 NE15G23   29.95R
$$

IAZ001>003-012>014-020>022-031-032-NEZ013-014-SDZ071-282300-
NORTHWEST IOWA

CITY           SKY/WX    TMP DP  RH WIND       PRES   REMARKS
CHEROKEE       LGT RAIN  43  35  74 NE10      29.94R
DENISON        PTSUNNY   41  39  93 NE13G20   29.90R
ESTHERVILLE    CLOUDY    44  34  67 NE13      29.94R
LE MARS        CLOUDY    46  34  61 N13G22    29.94S
ORANGE CITY    MOSUNNY   45  34  65 NE12      29.94R
SHELDON        CLOUDY    46  32  57 NE15      29.93R
SIOUX CITY     CLOUDY    46  38  73 N13       29.92R
SPENCER        CLOUDY    46  33  60 NE16      29.93R
STORM LAKE     CLOUDY    43  34  70 NE15      29.91R
$$

ABBREVIATIONS USED IN REMARKS
   TC - TEMPERATURE IN CELSIUS
  WCI - WIND CHILL INDEX
   HX - HEAT INDEX
  VSB - VISIBILITY





USA.gov is the U.S. government's official web portal to all federal, state and local government web resources and services.